Other Public Products
Issued by NWS Grand Forks, ND

Home | Current Version | Previous Version | Text Only | Print | Product List | Glossary On
Versions: 1 2 3 4 5 6 7 8 9 10 11 12 13 14 15 16 17 18 19 20 21 22 23 24 25 26 27 28 29 30 31 32 33 34 35 36 37 38 39 40 41 42 43 44 45 46 47 48 49 50
000
FPUS83 KFGF 230610
OPUFGF
PRAIRIE TO PINES WEATHER ROUNDUP
NATIONAL WEATHER SERVICE EASTERN NORTH DAKOTA/GRAND FORKS ND
100 AM CDT TUE MAY 23 2017

 **SATELLITE DATA USED TO AUGMENT SKY COVER AT AUTOMATED STATIONS**
 *****  WEATHER ACROSS EASTERN NORTH DAKOTA  *****

CITY           SKY/WX    TMP DP  RH WIND       PRES   REMARKS
GRAND FORKS    CLOUDY    49  47  93 N13       29.94R
6HR MIN TEMP:  49; 6HR MAX TEMP:  52; 6HR PCP: TRACE;

GRAND FORKS AF CLOUDY    48  45  90 N16       29.95S
GRAND CITY NWS NOT AVBL
BUXTON         NOT AVBL
DEVILS LAKE    CLOUDY    48  41  76 N16       30.02S
6HR MIN TEMP:  48; 6HR MAX TEMP:  50; 6HR PCP: TRACE;

FARGO          CLOUDY    49  47  93 N13       29.91R
6HR MIN TEMP:  49; 6HR MAX TEMP:  52; 6HR PCP: TRACE;

WAHPETON ARPT  CLOUDY    46  43  87 NW9       29.90S
$$

 *****  WEATHER ACROSS CENTRAL AND WESTERN NORTH DAKOTA  *****

CITY           SKY/WX    TMP DP  RH WIND       PRES   REMARKS
JAMESTOWN      LGT RAIN  47  44  90 N15       29.97S
6HR MIN TEMP:  47; 6HR MAX TEMP:  51; 6HR PCP:  0.01;

BISMARCK       CLOUDY    52  39  61 N7        30.08R
6HR MIN TEMP:  52; 6HR MAX TEMP:  62; 6HR PCP: TRACE;

MINOT          CLOUDY    49  38  65 NW7       30.09S
6HR MIN TEMP:  47; 6HR MAX TEMP:  63;

MINOT AFB      FAIR      41  35  77 NW7       30.09S
6HR MIN TEMP:  41; 6HR MAX TEMP:  62;

GARRISON         N/A     47  38  71 NW7       30.10R
6HR MIN TEMP:  45; 6HR MAX TEMP:  61;

WILLISTON      FAIR      50  35  56 E3        30.15R
6HR MIN TEMP:  46; 6HR MAX TEMP:  67;

DICKINSON      CLOUDY    49  34  56 NE8       30.11R
6HR MIN TEMP:  49; 6HR MAX TEMP:  58;

HETTINGER      CLOUDY    51  36  56 N9        30.12R
6HR MIN TEMP:  50; 6HR MAX TEMP:  59;

$$

 *****  OTHER OBSERVATIONS NORTHEAST NORTH DAKOTA  *****

CITY           SKY/WX    TMP DP  RH WIND       PRES   REMARKS
WALHALLA       NOT AVBL
LANGDON        MOCLDY    46  45  93 N16       30.01S
CAVALIER       CLOUDY    48  45  87 N13G22    29.99R
GRAFTON        CLOUDY    48  46  93 N15G22    29.98R
CANDO          NOT AVBL
FORT TOTTEN      N/A     48  42  81 N7        29.95S
ROLLA          CLOUDY    48  43  81 N15       30.07R
RUGBY          NOT AVBL
 ***** THE ABOVE OBSERVATIONS ARE NON NWS ARE NOT QUALITY
        CONTROLLED AND MAY MIS-REPORT RAIN FOR SNOW...
$$

 *****  OTHER OBSERVATIONS SOUTHEAST NORTH DAKOTA *****

CITY           SKY/WX    TMP DP  RH WIND       PRES   REMARKS
COOPERSTOWN    CLOUDY    46  45  93 N16G22    29.96S
VALLEY CITY    NOT AVBL
OAKES          NOT AVBL
GWINNER        CLOUDY    48  45  87 MISG      29.93S
SHEYENNE NWR     N/A     48  46  91 N7        29.95S
BUFFALO        NOT AVBL
WYNDMERE         N/A     48  45  87 NW10        N/A
 ***** THE ABOVE OBSERVATIONS ARE NON NWS ARE NOT QUALITY
       CONTROLLED AND MAY MIS-REPORT RAIN FOR SNOW...
$$

  *****  WEATHER ACROSS NORTHERN MINNESOTA  *****

CITY           SKY/WX    TMP DP  RH WIND       PRES   REMARKS
FLAG ISLAND    CLOUDY    48  45  87 N21       29.92R
WARROAD        CLOUDY    46  43  87 N10G20    29.92R
ROSEAU         CLOUDY    46  43  87 N12       29.92S
HALLOCK        CLOUDY    48  45  87 N13       29.96R
THF RVR FALLS  LGT RAIN  47  44  90 N13       29.92S
6HR MIN TEMP:  47; 6HR MAX TEMP:  49; 6HR PCP:  0.01;

HALSTAD          N/A     48  45  88 N14         N/A
FOSSTON        DRIZZLE   45  43  93 N9        29.90R
BAUDETTE       CLOUDY    47  46  97 N9        29.88R
6HR MIN TEMP:  47; 6HR MAX TEMP:  49; 6HR PCP:  0.02;

WASKISH        CLOUDY    46  45  93 N6        29.87R
CROOKSTON      RAIN      48  46  93 N10       29.93R
$$
  *****  WEATHER ACROSS CENTRAL AND WEST MINNESOTA  *****

CITY           SKY/WX    TMP DP  RH WIND       PRES   REMARKS
BEMIDJI        DRIZZLE   45  44  99 NW5       29.86S
PARK RAPIDS    CLOUDY    45  42  89 NW6       29.85S
6HR MIN TEMP:  45; 6HR MAX TEMP:  50; 6HR PCP:  0.01;

WADENA         CLOUDY    45  43  93 NW5       29.86S
DETROIT LAKES  DRIZZLE   46  45  93 N9        29.89S
MOORHEAD       CLOUDY    46  45  93 N9        29.91S
FERGUS FALLS   CLOUDY    46  46 100 N7        29.88S
ELBOW LAKE     CLOUDY    46  45  97 W8        29.89S
6HR MIN TEMP:  46; 6HR MAX TEMP:  52;

MORRIS MN      CLOUDY    48  46  93 NW9       29.87F
STAPLES        DRIZZLE   45  43  93 CALM      29.86S
WHEATON        CLOUDY    48  45  87 NW7       29.92S
$$
  *****  WEATHER ELSEWHERE ACROSS MINNESOTA  *****

CITY           SKY/WX    TMP DP  RH WIND       PRES   REMARKS
DULUTH         CLOUDY    48  45  89 N5        29.82S
6HR MIN TEMP:  48; 6HR MAX TEMP:  53;

INTRNTL FALLS  LGT RAIN  48  46  93 N8        29.84S FOG
6HR MIN TEMP:  47; 6HR MAX TEMP:  50; 6HR PCP: TRACE;

ELY            FAIR      37  37 100 CALM      29.83S FOG
CLOQUET        CLOUDY    46  43  87 N3        29.83S
BRAINERD       CLOUDY    46  44  93 N6        29.85S
6HR MIN TEMP:  46; 6HR MAX TEMP:  51; 6HR PCP: TRACE;

HIBBING        FOG       36  36 100 NW5       29.83S VSB 3/4
6HR MIN TEMP:  37; 6HR MAX TEMP:  49; 6HR PCP: TRACE;

ALEXANDRIA     CLOUDY    45  44  97 NW5       29.88S
6HR MIN TEMP:  45; 6HR MAX TEMP:  54; 6HR PCP:  0.02;

SAINT CLOUD    CLOUDY    45  43  93 NW6       29.84S
6HR MIN TEMP:  45; 6HR MAX TEMP:  58;

MINNEAPOLIS    LGT RAIN  54  45  71 W3        29.83S
6HR MIN TEMP:  54; 6HR MAX TEMP:  64; 6HR PCP:  0.01;

$$

  *****  WEATHER ACROSS SOUTH DAKOTA  *****

CITY           SKY/WX    TMP DP  RH WIND       PRES   REMARKS
SIOUX FALLS    FAIR      50  44  80 NW17      29.92S
6HR MIN TEMP:  50; 6HR MAX TEMP:  54; 6HR PCP: TRACE;

BROOKINGS      LGT RAIN  46  43  89 NW9       29.93R
WATERTOWN      CLOUDY    47  44  90 NW17G23   29.90F
6HR MIN TEMP:  47; 6HR MAX TEMP:  56; 6HR PCP:  0.01;

HURON          CLOUDY    47  46  97 W7        29.97F
6HR MIN TEMP:  47; 6HR MAX TEMP:  57; 6HR PCP: TRACE;

SISSETON         N/A     47  46  97 N12       29.90S
ABERDEEN       CLOUDY    48  43  82 N12       29.97S
6HR MIN TEMP:  48; 6HR MAX TEMP:  57; 6HR PCP:  0.01;

MITCHELL       LGT RAIN  49  45  86 N8        29.99S
PIERRE         CLOUDY    51  41  68 SW6       29.99F
6HR MIN TEMP:  50; 6HR MAX TEMP:  60;

MOBRIDGE       CLOUDY    53  42  66 NE16      30.00R
RAPID CITY     MOCLDY    44  38  79 NW9       30.13S
6HR MIN TEMP:  43; 6HR MAX TEMP:  54; 6HR PCP:  0.03;

$$

  *****  SOME WEATHER IN NEARBY STATES *****

CITY           SKY/WX    TMP DP  RH WIND       PRES   REMARKS
GLASGOW MT     FAIR      45  33  63 NE7       30.18R
6HR MIN TEMP:  45; 6HR MAX TEMP:  68;

GREAT FALLS MT FAIR      53  39  59 E7        30.20S
6HR MIN TEMP:  53; 6HR MAX TEMP:  73;

CHEYENNE WY    FAIR      38  33  82 NW12      30.25S
6HR MIN TEMP:  38; 6HR MAX TEMP:  46; 6HR PCP: TRACE;

SCOTTSBLUFF NE CLOUDY    41  37  86 NW6       30.20R
6HR MIN TEMP:  38; 6HR MAX TEMP:  56; 6HR PCP: TRACE;

OMAHA NE       CLOUDY    56  47  71 N12       29.92R
6HR MIN TEMP:  56; 6HR MAX TEMP:  64;

DES MOINES IA  FAIR      55  53  93 NW6       29.84F
6HR MIN TEMP:  55; 6HR MAX TEMP:  68; 6HR PCP:  0.05;

DAVENPORT IA   FAIR      57  51  80 S10       29.84F
6HR MIN TEMP:  57; 6HR MAX TEMP:  63;

CHICAGO IL     CLOUDY    60  53  77 SW8G17    29.86F
6HR MIN TEMP:  60; 6HR MAX TEMP:  68; 6HR PCP:  0.01;

EAU CLAIRE WI  CLOUDY    51  47  86 N3        29.79F
6HR MIN TEMP:  51; 6HR MAX TEMP:  63;

LA CROSSE WI   FAIR      55  54  96 CALM      29.78F
6HR MIN TEMP:  55; 6HR MAX TEMP:  69; 6HR PCP:  0.25;

$$

  *****  SOME NATIONAL WEATHER *****

CITY           SKY/WX    TMP DP  RH WIND       PRES   REMARKS
LA GUARDIA NY  CLOUDY    60  57  89 NW14      29.94F



USA.gov is the U.S. government's official web portal to all federal, state and local government web resources and services.